Regional Weather Roundup
Issued by NWS Charleston, SC

Current Version | Previous Version | Graphics & Text | Print | Product List | Glossary On
Versions: 1 2 3 4 5 6 7 8 9 10 11 12 13 14 15 16 17 18 19 20 21 22 23 24 25 26 27 28 29 30 31 32 33 34 35 36 37 38 39 40 41 42 43 44 45 46 47 48 49 50
000 ASUS42 KCHS 021213 RWRCHS REGIONAL WEATHER ROUNDUP NATIONAL WEATHER SERVICE CHARLESTON SC 800 AM EDT MON MAY 02 2016 NOTE: "FAIR" INDICATES FEW OR NO CLOUDS BELOW 12,000 FEET WITH NO SIGNIFICANT WEATHER AND/OR OBSTRUCTIONS TO VISIBILITY. NOT ALL STATIONS ARE QUALITY CONTROLLED. USE DATA WITH CAUTION... ESPECIALLY DEWPOINT OBSERVATIONS. SCZ027-030-031-034>040-042>050-021300- ...SOUTHEAST SOUTH CAROLINA... CITY SKY/WX TMP DP RH WIND PRES REMARKS N CHARLESTON PTSUNNY 73 71 93 S5 30.05R 6HR MIN TEMP: 69; 6HR MAX TEMP: 73; WATERFRONT PRK N/A 73 72 96 VRB2 30.03R MOUNT PLEASANT FAIR 73 73 100 S6 30.06R FOG JOHNS ISLAND FAIR 75 73 94 S5 30.06R PINOPOLIS NOT AVBL MONCKS CORNER CLOUDY 68 66 94 SW3 30.05S FOG SUMMERVILLE FOG 70 70 100 CALM 30.06R VSB 1 BEAUFORT MCAS PTSUNNY 75 71 87 S3 30.05R 6HR MIN TEMP: 73; 6HR MAX TEMP: 75; BEAUFORT ARPT FAIR 75 72 88 S5 30.05R FOG HILTON HEAD IS SUNNY 75 72 88 S9 30.06R WALTERBORO CLOUDY 73 73 100 S3 30.06R FOG ALLENDALE FOG 68 68 100 CALM 30.05R VSB 1/4 ...SOUTHERN MIDLANDS AND PEE DEE... CITY SKY/WX TMP DP RH WIND PRES REMARKS GEORGETOWN FAIR 70 70 100 CALM 30.06S KINGSTREE FAIR 68 68 100 CALM 30.05R FOG ORANGEBURG FOG 69 68 96 S5 30.05S VSB 1 6HR MIN TEMP: 68; 6HR MAX TEMP: 69; BARNWELL PTSUNNY 70 70 100 CALM 30.06R AIKEN FAIR 66 63 88 S3 30.08R MANNING NOT AVBL COLUMBIA PTSUNNY 69 65 86 S3 30.03R 6HR MIN TEMP: 68; 6HR MAX TEMP: 71; 6HR PCP: TRACE; SUMTER NOT AVBL FLORENCE CLOUDY 71 69 93 SW7 30.04R 6HR MIN TEMP: 67; 6HR MAX TEMP: 71; MYRTLE BEACH PTSUNNY 73 64 73 SW7 30.07 N MYRTLE BEACH PTSUNNY 73 70 90 SW7 30.05R 6HR MIN TEMP: 70; 6HR MAX TEMP: 73; $$ GAZ063-065-086>088-099>101-113>116-118-119-134>141-150-021300- ...SOUTHEAST GEORGIA... CITY SKY/WX TMP DP RH WIND PRES REMARKS SAVANNAH ARPT CLOUDY 74 70 87 S8 30.05R 6HR MIN TEMP: 70; 6HR MAX TEMP: 74; HUNTER AAF PTSUNNY 75 75 100 S6 30.02R 6HR MIN TEMP: 72; 6HR MAX TEMP: 75; FORT STEWART CLOUDY 70 69 97 CALM 30.02R 6HR MIN TEMP: 66; 6HR MAX TEMP: 70; 6HR PCP: 0.01; STATESBORO CLOUDY 74 73 99 S6 30.04S SYLVANIA MOSUNNY 70 70 100 CALM 30.06R FOG CLAXTON FAIR 69 69 100 CALM 30.04S FOG ...CSRA...CENTRAL AND FAR SOUTHEAST GEORGIA... CITY SKY/WX TMP DP RH WIND PRES REMARKS THOMSON CLOUDY 70 68 92 CALM 30.08S AUGUSTA-BUSH MOSUNNY 67 65 93 CALM 30.03R 6HR MIN TEMP: 64; 6HR MAX TEMP: 69; AUGUSTA-DANIEL CLOUDY 68 64 87 SE5 30.04S SWAINSBORO CLOUDY 68 66 94 CALM 30.05S VIDALIA CLOUDY 70 68 94 S3 30.04S FOG EASTMAN FAIR N/A N/A N/A CALM 30.06R HAZLEHURST FAIR 72 72 100 S6 30.03R ALMA CLOUDY 70 70 100 S5 30.04R 6HR MIN TEMP: 67; 6HR MAX TEMP: 70; WAYCROSS MOSUNNY 71 71 99 S5 30.05R JESUP FAIR 73 72 94 CALM 30.04S FOG BAXLEY CLOUDY 72 70 94 S3 30.04S BRUNSWICK MOSUNNY 77 72 83 S6 30.05S SAINT SIMONS MOSUNNY 74 72 93 S7 30.04R 6HR MIN TEMP: 73; 6HR MAX TEMP: 74; $$ SCZ027-028-034-036>038-045-046-048>050-GAZ119-141-021300- ...LAKE AND SUPPLEMENTAL COASTAL OBSERVATIONS... STATION/POSITION TIME TEMP WIND PRES WAVE SWELL AIR SEA DIR/SP/G HT/PER HT/PER/DIR (UTC) (F) (DEG/KT/KT) (MB) (FT/S) (FT/S/D) WINYAH BAY NOT AVBL LAKE MURRAY 1100 70 230/ 7/ 9 1016.3R ACE BASIN NERRS NOT AVBL FORT PULASKI 1100 74 74 190/ 3/ 7 1017.2R SAPELO ISLAND 1100 73 170/ 7 1017.0S $$ ANZ835-935-AMZ111-154-330-350-352-354-370-450-454-472-021300- ...C-MAN AND BUOY OBSERVATIONS... STATION/POSITION TIME TEMP WIND PRES WAVE SWELL AIR SEA DIR/SP/G HT/PER HT/PER/DIR (UTC) (F) (DEG/KT/KT) (MB) (FT/S) (FT/S/D) BUOY 41004 1150 75 73 200/ 8/ 8 1017.3R 3/ 9 3/ 9 BUOY 41008 NOT AVBL FOLLY BEACH CMAN 1100 73 200/ 7/ 9 1017.6R CAPERS NEARSHORE 1108 72 72 200/ 6/ 8 1017.5R FRIPP NEARSHORE 1108 74 74 210/ 8/ 10 1016.6R STATION/POSITION TIME TEMP WIND PRES WAVE SWELL AIR SEA DIR/SP/G HT/PER HT/PER/DIR (UTC) (F) (DEG/KT/KT) (MB) (FT/S) (FT/S/D) 5E ST. MARYS GA 1121 74 N/A 3/ 6 FRYING PAN BUOY 1100 74 72 200/ 10/ 12 1017.5R BUOY 41025 1150 74 72 220/ 14/ 16 1017.4R 5/10 3/ 80/10 CAPE LOOKOUT NC 1100 70 220/ 8/ 12 1016.9R BUOY 41002 1150 73 74 140/ 8/ 8 1020.3R 3/ 9 3/ 30/ 9 BUOY 41010 1120 77 78 160/ 12/ 16 1017.9R ST AUGUSTINE FL 1200 72 71 140/ 2/ 2 1018.3R $$

USA.gov is the U.S. government's official web portal to all federal, state and local government web resources and services.